Zurück zum Katalog

STARLINK-35634

AktivKommunikationVLEO
NORAD 66173·PAYLOAD·🇺🇸 United States

Gestartet Oct 25, 2025 von Cape Canaveral Space Force Station

Loading…

Nächste Überflüge (nächste 24 Stunden)

TLE

AktuellSource: CelesTrak SupGP

Epoche: Sep 14, 2026, 20:45 UTC

1 66173C 25240AD  26257.86506944  .00050533  00000+0  14933-2 0  2574
2 66173  53.1571 260.0138 0001261  92.8394 124.5036 15.34359020    16

Verfolge STARLINK-35634 in Echtzeit mit AllMySat

Download on the App Store